Change the Weather History Date:

Monday, January 6, 2014

  Actual Average Record
Temperature  
Mean Temperature 26 °F 29 °F  
Max Temperature 35 °F 37 °F 55 °F (1948)
Min Temperature 16 °F 22 °F -13 °F (1942)
Degree Days  
Heating Degree Days 39 36  
Month to date heating degree days 235 216  
Since 1 July heating degree days 2526 2510  
Cooling Degree Days 0 0  
Month to date cooling degree days 0 0  
Year to date cooling degree days 0 0  
Moisture  
Dew Point 10 °F    
Average Humidity 60    
Maximum Humidity 84    
Minimum Humidity 35    
Precipitation  
Precipitation 0.00 in 0.04 in 0.41 in (1944)
Month to date precipitation 0.11 0.26  
Year to date precipitation 0.11 0.26  
Snow  
Snow 0.00 in 0.40 in 7.60 in (1967)
Month to date snowfall 2.5 2.7  
Since 1 July snowfall 25.2 24.9  
Snow Depth 5.00 in    
Sea Level Pressure  
Sea Level Pressure 30.56 in    
Wind  
Wind Speed 6 mph (SE)    
Max Wind Speed 10 mph    
Max Gust Speed 12 mph    
Visibility 10 miles    
Events      
T = Trace of Precipitation, MM = Missing Value Source: NWS Daily Summary

Daily Weather History Graph

Daily Weather History Graph

Search for Another Location

Airport or City:

Trip Planner

Search our weather history database for the weather conditions in past years. The results will help you decide how hot, cold, wet, or windy it might be!

Date:

Astronomy

Jan. 06, 2014 Rise Set
Actual Time 7:52 AM MST 5:15 PM MST
Civil Twilight 7:21 AM MST 5:46 PM MST
Nautical Twilight 6:47 AM MST 6:20 PM MST
Astronomical Twilight 6:14 AM MST 6:53 PM MST
Moon 11:07 AM MST (1/6) 11:55 PM MST (1/6)
Length of Visible Light 10h 24m
Length of Day
9h 23m
Waxing Crescent, 35% of the Moon is Illuminated
Jan 6
Waxing Crescent
Jan 7
First Quarter
Jan 15
Full
Jan 23
Last Quarter
Jan 30
New

Hourly Weather History & Observations

Time (MST) Temp. Windchill Dew Point Humidity Pressure Visibility Wind Dir Wind Speed Gust Speed Precip Events Conditions
12:53 AM 19.0 °F 9.0 °F 7.0 °F 59% 30.56 in 10.0 mi SE 8.1 mph - N/A   Clear
1:53 AM 17.1 °F 6.6 °F 7.0 °F 65% 30.57 in 10.0 mi SE 8.1 mph - N/A   Clear
2:53 AM 18.0 °F 7.7 °F 7.0 °F 62% 30.58 in 10.0 mi SE 8.1 mph - N/A   Clear
3:53 AM 17.1 °F 8.7 °F 7.0 °F 65% 30.61 in 10.0 mi SSE 5.8 mph - N/A   Clear
4:53 AM 17.1 °F 6.6 °F 7.0 °F 65% 30.61 in 10.0 mi SE 8.1 mph - N/A   Clear
5:53 AM 17.1 °F 7.6 °F 7.0 °F 65% 30.63 in 10.0 mi SE 6.9 mph - N/A   Clear
6:53 AM 17.1 °F 5.8 °F 7.0 °F 65% 30.64 in 10.0 mi SE 9.2 mph - N/A   Clear
7:53 AM 17.1 °F 6.6 °F 7.0 °F 65% 30.65 in 10.0 mi ESE 8.1 mph - N/A   Partly Cloudy
8:53 AM 21.0 °F 11.4 °F 8.1 °F 57% 30.66 in 10.0 mi SSE 8.1 mph - N/A   Partly Cloudy
9:53 AM 24.1 °F 16.0 °F 8.1 °F 51% 30.67 in 10.0 mi SE 6.9 mph - N/A   Partly Cloudy
10:53 AM 27.0 °F 19.5 °F 10.0 °F 49% 30.65 in 10.0 mi SE 6.9 mph - N/A   Partly Cloudy
11:53 AM 32.0 °F - 12.0 °F 44% 30.60 in 10.0 mi Calm Calm - N/A   Partly Cloudy
12:53 PM 33.1 °F 26.9 °F 10.0 °F 38% 30.56 in 10.0 mi SSE 6.9 mph - N/A   Partly Cloudy
1:53 PM 34.0 °F 28.0 °F 10.0 °F 37% 30.53 in 10.0 mi SSE 6.9 mph - N/A   Partly Cloudy
2:53 PM 32.0 °F 25.6 °F 15.1 °F 50% 30.52 in 10.0 mi NNW 6.9 mph - N/A   Partly Cloudy
3:53 PM 30.0 °F 24.1 °F 12.9 °F 49% 30.51 in 10.0 mi NW 5.8 mph - N/A   Scattered Clouds
4:53 PM 28.0 °F 24.2 °F 10.9 °F 49% 30.51 in 10.0 mi WNW 3.5 mph - N/A   Scattered Clouds
5:53 PM 23.0 °F 17.0 °F 10.0 °F 58% 30.52 in 10.0 mi NW 4.6 mph - N/A   Scattered Clouds
6:53 PM 19.9 °F 14.9 °F 10.9 °F 68% 30.52 in 10.0 mi North 3.5 mph - N/A   Mostly Cloudy
7:53 PM 19.9 °F - 12.0 °F 71% 30.51 in 10.0 mi Calm Calm - N/A   Mostly Cloudy
8:53 PM 21.0 °F - 15.1 °F 78% 30.48 in 10.0 mi Calm Calm - N/A   Mostly Cloudy
9:53 PM 21.0 °F 16.2 °F 15.1 °F 78% 30.45 in 10.0 mi SW 3.5 mph - N/A   Mostly Cloudy
10:53 PM 21.9 °F 15.7 °F 15.1 °F 75% 30.41 in 10.0 mi SSE 4.6 mph - N/A   Mostly Cloudy
11:53 PM 21.0 °F 11.4 °F 14.0 °F 74% 30.37 in 10.0 mi SE 8.1 mph - N/A   Scattered Clouds